RH
16 16 23 26 24 33 32 28 37 60 62 56 60 75 85 86 80 78 83 84 95 99 99 88 80 71 73 78 77 61 49 41 32 27 29 33 50 66 54 55 58 58 60 49 30 30 33 37 44
14 21 29 26 22 27 26 22 52 61 58 60 50 62 81 90 80 93 91 88 100 100 100 95 78 70 76 84 70 59 62 46 37 48 42 55 64 65 48 46 48 54 51 38 36 34 34 36 40
20 21 24 19 25 22 24 40 59 56 59 53 53 59 72 85 76 82 90 100 99 100 99 89 74 77 88 82 67 58 40 32 38 60 73 80 76 58 40 39 37 38 42 32 32 32 33 34 40
21 18 19 17 19 18 17 33 51 57 45 47 60 74 67 74 82 81 88 96 100 100 97 86 83 83 82 71 53 40 36 35 50 67 71 83 65 38 34 33 33 32 30 32 34 34 34 32 36
17 22 21 17 15 16 53 54 59 48 43 49 49 67 80 81 88 89 88 99 99 99 86 79 83 86 66 57 41 36 35 39 41 42 43 46 34 31 31 31 30 29 29 33 37 37 36 36 36
27 21 23 23 20 59 56 65 64 59 49 54 61 66 81 99 97 95 95 99 99 90 82 92 83 63 55 43 34 35 33 36 38 37 38 32 30 29 30 31 33 32 30 34 40 40 40 39 38
24 24 22 18 17 52 60 61 67 64 49 55 49 80 85 95 100 100 100 97 89 94 100 97 79 58 48 35 34 30 29 40 37 34 30 30 30 30 31 34 34 35 34 31 40 43 44 43 43
22 18 17 16 15 45 57 64 58 50 45 47 64 85 90 96 100 100 94 98 96 93 89 87 76 58 52 54 37 27 38 40 31 28 29 28 29 31 33 34 37 38 37 35 46 45 44 45 45
13 20 22 18 26 53 58 59 51 50 50 80 86 87 92 100 100 100 100 100 97 94 90 76 75 68 74 54 36 36 42 35 34 34 34 41 42 34 32 34 37 41 42 42 45 49 48 46 46
17 20 18 15 45 56 62 60 50 47 64 87 92 91 100 99 97 97 97 99 100 97 78 72 86 82 64 50 39 45 44 39 44 49 54 64 58 43 35 37 42 47 47 46 51 50 48 46 49
16 18 14 24 43 54 61 56 55 51 51 67 91 92 90 95 89 91 97 91 92 86 85 94 80 76 62 47 45 44 41 52 56 60 66 68 71 52 45 47 49 55 56 55 53 48 48 49 47
15 13 12 32 53 58 62 49 45 46 40 49 77 84 82 93 90 78 82 88 87 87 96 87 80 64 44 39 49 46 48 58 69 73 72 75 70 67 54 56 59 59 60 52 50 49 50 49 48
14 13 25 46 47 45 39 43 40 67 68 68 75 73 78 86 86 76 73 82 88 72 86 86 70 50 42 45 52 54 56 65 74 86 81 78 74 74 65 62 60 60 52 51 50 50 49 49 46
19 21 38 41 41 38 41 43 32 47 72 80 76 76 77 80 86 86 86 90 90 83 85 85 64 50 46 51 61 66 71 84 90 82 78 75 65 60 57 58 55 52 53 53 52 51 50 46 44
21 30 41 42 49 35 32 32 38 51 67 70 73 78 78 78 83 88 87 84 73 85 85 81 58 54 61 63 66 76 84 90 84 78 77 73 66 64 62 58 57 54 52 51 52 51 49 48 42
21 28 43 40 38 30 26 34 34 39 63 70 68 71 74 75 77 83 87 75 74 77 73 70 67 57 61 65 74 81 83 82 75 55 58 68 63 64 63 60 56 54 54 55 55 52 52 47 42
26 24 25 37 31 30 34 32 29 37 58 72 70 69 71 71 68 70 75 75 74 67 58 58 59 69 74 76 76 78 76 60 55 58 64 72 71 70 65 60 55 55 55 53 54 51 49 48 46
29 26 23 24 34 32 32 33 27 47 49 66 69 59 57 64 66 62 60 67 67 62 57 59 68 72 72 71 73 69 57 58 60 66 74 74 70 62 57 57 55 54 54 52 48 47 49 49 50
28 27 32 29 26 33 33 28 32 37 53 62 59 50 51 56 52 53 55 60 63 55 58 62 75 75 73 76 71 65 62 63 64 68 73 69 58 58 58 57 56 53 50 49 46 46 47 49 51
30 33 35 26 21 30 32 28 27 32 41 46 49 44 45 49 47 48 51 58 63 65 65 65 72 74 71 68 63 59 64 70 64 64 60 58 60 61 63 57 56 54 51 48 46 48 50 52 51
30 35 34 30 20 16 29 27 24 24 26 41 38 36 36 41 45 48 55 61 63 78 74 65 71 75 73 68 61 65 70 67 69 63 65 64 60 60 59 57 54 52 49 48 51 52 54 55 56
32 28 28 25 31 30 21 34 29 24 24 38 45 43 43 39 44 47 58 63 68 81 78 73 73 76 70 60 60 72 70 73 69 64 65 61 60 58 57 52 51 50 51 54 56 57 55 56 62
31 24 28 27 31 32 30 34 31 28 26 26 40 46 42 45 45 52 65 62 69 79 79 74 79 77 72 63 76 76 68 63 61 64 62 59 58 56 53 52 52 55 55 51 48 47 48 51 58
25 29 38 48 43 43 32 34 36 31 23 23 28 38 47 47 50 49 66 73 79 87 82 73 79 80 78 72 78 74 63 59 63 65 62 60 58 57 56 55 52 48 45 42 42 42 41 42 46
28 36 53 59 70 54 43 43 37 29 28 27 32 38 45 49 62 74 88 84 94 89 89 90 86 85 78 74 75 69 57 58 59 61 61 60 62 52 44 42 41 40 39 39 40 40 44 47 51
36 36 59 46 72 58 44 51 39 28 26 25 27 34 49 58 62 72 80 87 87 92 96 92 84 79 75 74 76 64 60 60 58 61 60 60 45 41 41 45 41 42 41 40 41 44 50 59 62
31 40 35 65 70 78 56 33 28 30 36 40 49 44 62 72 72 71 74 80 86 90 89 85 79 75 72 64 61 60 59 57 58 48 43 40 43 46 50 41 44 47 41 42 44 51 58 58 55
30 25 38 53 53 61 43 34 44 31 34 44 47 51 64 67 72 76 77 81 80 72 71 74 71 70 66 62 54 52 46 43 46 49 45 51 47 46 49 54 54 49 43 43 51 53 52 52 55
34 32 30 40 57 58 66 41 26 36 39 46 50 53 64 68 67 68 70 69 67 65 65 64 66 68 58 57 59 52 44 45 46 44 42 42 48 56 61 63 49 44 43 47 52 52 52 54 61
32 34 38 63 37 59 74 47 28 29 33 46 52 53 61 59 60 59 63 66 65 61 56 51 51 53 55 55 50 45 45 46 44 42 41 52 56 56 49 49 45 44 48 49 53 53 56 59 62
Wind_Speed
6 3 2 2 3 4 4 7 3 2 2 2 3 10 9 5 1 2 13 15 33 30 34 33 33 32 30 27 26 25 25 26 28 29 28 29 28 26 28 28 28 27 27 29 30 30 30 33 36
3 3 1 2 4 2 5 5 5 4 5 7 3 4 5 4 3 8 12 24 29 32 33 34 35 33 30 27 26 26 27 28 28 27 28 29 28 26 28 28 28 28 29 30 30 31 30 32 38
4 4 3 4 4 6 4 4 7 3 5 3 3 6 3 3 9 10 17 29 30 31 34 34 34 33 29 27 27 27 28 30 28 27 27 27 26 26 28 28 28 28 27 30 31 30 29 28 37
2 4 3 3 10 4 6 1 3 4 1 6 6 7 4 8 3 14 32 33 28 32 33 33 32 34 30 27 27 28 29 30 29 27 27 25 26 27 27 27 26 25 27 28 29 29 27 26 29
2 3 1 3 3 5 5 6 2 2 2 4 1 3 4 10 20 28 31 29 32 32 33 33 28 30 31 27 27 27 28 28 28 27 28 27 28 27 26 25 24 23 24 25 25 25 25 23 22
3 3 1 4 3 2 1 5 1 4 7 4 4 5 4 13 17 22 20 21 29 30 27 28 28 27 29 27 27 27 27 27 28 28 28 28 28 26 25 23 22 21 20 21 21 21 22 21 20
4 3 4 2 3 3 4 3 2 1 5 6 3 4 2 13 20 20 17 28 24 24 28 29 27 24 21 23 26 26 26 26 27 28 27 26 25 24 22 20 19 18 18 17 17 17 17 15 18
4 4 3 3 2 4 2 3 9 13 6 10 3 4 4 3 22 28 34 34 38 38 28 25 23 21 15 23 24 24 25 26 26 26 26 24 21 20 18 17 16 16 16 16 16 16 15 14 15
3 0 6 3 1 4 4 3 3 4 7 5 4 5 16 22 28 28 26 26 31 33 30 28 21 21 23 23 23 23 25 26 26 25 23 21 19 16 15 15 15 15 17 15 13 13 12 13 15
3 2 3 6 6 6 7 1 3 3 8 6 14 20 18 23 26 22 18 20 29 31 28 28 22 25 25 24 25 26 26 25 24 22 21 19 17 15 14 14 15 15 14 12 12 12 12 11 11
3 6 4 4 5 6 7 2 2 2 4 7 15 18 14 21 23 24 25 27 32 30 29 26 26 26 27 27 26 26 25 23 20 17 17 14 14 12 13 15 14 12 9 9 13 11 11 11 10
3 9 2 4 6 5 5 5 2 3 3 9 16 19 21 17 22 27 31 29 32 32 26 27 28 29 26 27 26 26 24 20 16 13 13 13 12 10 12 12 10 10 11 15 12 10 9 9 9
6 7 1 11 8 5 6 6 5 3 9 18 19 21 19 17 21 21 24 24 23 34 28 23 30 28 28 27 26 25 23 18 14 11 12 13 13 12 14 14 14 16 13 11 9 6 6 7 9
5 7 11 9 7 2 6 2 9 4 13 17 16 18 16 17 25 25 19 22 24 27 30 26 32 29 28 28 24 23 17 18 19 15 14 17 17 17 17 18 17 15 10 6 3 5 6 8 9
4 6 7 7 2 5 4 4 5 6 6 16 15 16 14 17 26 27 25 24 33 33 26 31 31 29 28 26 22 22 24 21 17 13 14 15 16 16 17 17 14 11 7 3 2 4 5 7 10
5 8 5 7 9 2 1 5 3 10 7 8 10 12 13 17 27 27 29 32 35 27 32 33 30 27 26 26 29 27 22 17 15 12 12 15 15 13 14 13 10 8 6 2 2 3 6 8 4
5 3 5 3 6 8 5 4 5 6 11 8 8 10 14 17 22 27 29 32 32 35 37 32 29 32 32 32 28 23 18 15 12 10 11 13 13 13 11 10 10 7 7 5 3 4 5 2 3
4 2 2 4 5 4 4 5 2 7 14 12 10 8 14 16 20 31 34 34 35 38 39 32 30 34 33 29 24 20 17 14 11 11 11 13 14 13 11 9 8 8 7 5 3 3 3 3 3
4 1 4 7 8 6 9 7 9 9 9 9 10 10 14 17 22 31 33 35 37 37 39 35 35 34 32 29 25 20 17 12 11 12 14 15 15 13 10 11 11 10 7 4 3 2 5 5 4
3 7 10 9 5 7 6 7 6 9 11 17 15 13 14 12 15 22 28 30 34 35 38 37 36 35 33 30 28 20 15 12 10 13 16 15 14 13 17 13 12 10 6 1 1 5 6 6 5
6 3 8 8 2 1 6 6 4 5 5 7 12 18 16 19 20 16 24 30 31 30 39 41 39 37 33 29 23 13 11 10 14 16 17 19 19 18 14 10 7 4 3 3 2 3 4 5 9
5 10 16 6 5 2 3 4 4 5 8 11 9 10 14 14 16 17 24 27 31 34 40 42 40 37 32 26 21 20 23 22 24 27 24 22 20 17 12 9 7 7 7 5 2 1 3 6 8
7 1 6 3 3 3 3 4 6 5 6 10 12 15 15 17 19 18 24 36 37 38 41 40 38 35 28 29 26 29 29 29 27 27 26 23 19 15 12 12 11 11 8 4 1 3 6 7 9
4 4 6 4 2 1 1 2 4 5 16 14 6 12 11 12 14 15 18 25 27 32 38 40 35 33 30 35 28 34 32 31 27 29 28 24 19 15 12 12 11 7 3 2 4 6 8 9 11
3 5 3 5 4 5 5 4 8 6 8 9 10 9 11 11 10 9 12 21 25 32 35 35 37 33 30 31 28 34 34 32 32 32 29 24 18 16 10 6 4 2 0 4 8 11 12 10 11
2 5 5 4 2 4 3 4 5 8 8 7 1 7 8 10 13 13 15 21 27 29 29 30 35 29 25 27 26 35 31 30 27 28 24 21 18 12 9 3 2 2 6 8 10 11 10 7 8
2 3 4 6 3 3 4 5 5 5 6 4 6 6 7 8 10 14 15 21 24 26 31 33 28 26 24 24 24 25 25 23 22 21 18 18 14 13 6 4 6 13 11 12 11 9 5 9 13
6 3 2 3 3 3 4 4 4 1 3 2 4 7 7 7 8 7 11 20 24 30 29 28 27 27 27 28 27 24 24 24 21 17 16 12 11 9 2 8 13 13 9 12 9 7 10 13 12
1 2 1 4 4 4 1 5 5 8 8 8 8 8 10 10 12 12 12 22 29 28 25 24 26 29 32 29 25 27 27 24 19 16 12 12 6 2 6 10 10 9 9 10 9 8 10 10 6
1 4 5 4 4 1 4 5 4 8 8 8 9 7 7 10 12 13 18 25 28 32 31 31 33 36 34 33 33 32 28 22 18 13 13 6 5 7 9 11 9 6 11 12 11 10 8 8 8
Wind_Direction
271 265 276 88 59 68 253 257 247 314 111 293 52 102 103 50 337 192 128 157 153 151 157 154 150 148 143 138 135 128 124 118 116 113 110 107 105 104 101 98 94 90 84 80 76 72 68 62 57
254 202 116 91 95 82 267 251 200 231 164 179 82 107 54 78 80 111 110 155 149 151 155 154 150 145 142 138 134 130 123 120 116 113 111 109 109 108 104 101 97 91 87 81 73 72 69 65 62
251 199 101 132 139 205 228 238 180 234 184 165 92 52 79 55 114 143 143 145 148 153 156 154 149 143 140 137 134 131 128 124 118 116 112 111 110 109 107 104 99 95 88 84 75 73 70 67 64
104 32 16 110 240 278 244 109 238 157 58 64 104 63 48 10 343 161 154 152 147 151 153 151 148 142 137 137 134 132 129 125 123 119 117 115 113 110 108 104 100 96 91 85 76 71 69 68 62
120 77 28 234 44 300 0 38 304 120 21 44 12 114 63 26 102 134 154 153 150 151 153 149 148 136 132 135 135 134 133 129 125 123 121 122 118 114 111 108 103 99 95 89 82 76 72 66 64
20 96 67 254 123 354 15 346 213 352 21 354 52 94 62 63 103 123 140 149 150 145 146 145 141 132 128 135 138 139 138 133 128 128 128 125 121 119 114 110 104 97 91 84 78 75 71 66 60
144 90 244 290 243 195 256 356 57 17 58 2 115 68 81 57 103 121 110 126 134 134 128 117 123 120 128 137 146 144 138 133 130 130 127 127 124 120 117 115 109 100 90 85 79 77 72 57 51
135 115 281 261 312 237 231 277 165 135 202 150 136 136 151 144 108 116 110 94 93 100 103 117 124 125 150 154 150 143 137 136 132 131 129 127 125 123 121 114 107 101 93 93 86 78 70 65 49
136 290 250 248 176 204 266 166 283 356 79 41 24 89 128 125 117 112 115 117 108 121 128 130 138 162 173 157 149 145 143 140 137 134 134 129 122 121 120 115 111 105 104 100 95 88 72 63 53
118 204 251 202 159 195 171 252 329 47 98 68 88 102 117 122 121 118 117 111 126 138 142 154 173 174 168 161 157 154 151 145 143 142 138 132 127 117 123 117 118 119 113 118 115 103 88 72 66
206 231 215 233 192 101 159 131 293 67 69 184 148 138 132 130 125 126 114 134 142 160 166 173 179 178 171 167 162 155 149 146 144 148 143 140 145 138 136 138 132 135 135 121 127 111 94 87 70
230 258 198 162 118 139 167 155 76 157 196 160 137 140 138 144 154 148 140 161 156 168 180 179 182 180 174 169 164 159 156 152 149 156 167 174 167 161 157 141 153 158 139 132 126 112 97 72 47
200 273 81 116 134 184 127 77 124 47 100 115 134 137 149 147 151 166 162 161 167 169 186 187 184 182 176 172 168 161 160 163 170 156 152 159 156 168 158 162 149 144 143 132 122 98 64 41 23
295 251 119 115 166 127 112 158 125 244 135 130 144 143 162 160 167 179 177 166 171 180 190 194 187 183 178 170 169 167 174 172 162 154 143 151 149 156 159 150 146 142 147 127 98 63 49 42 24
261 81 30 102 266 149 140 27 108 147 155 148 156 153 172 162 170 177 182 177 182 186 199 195 181 181 177 174 178 180 175 166 167 172 172 167 167 167 157 154 149 143 138 130 63 67 36 11 7
40 103 123 246 210 207 60 263 243 164 146 174 154 159 161 168 177 180 183 181 183 187 180 183 188 184 187 191 177 176 177 170 174 179 180 183 183 178 173 166 158 151 151 138 104 56 9 4 18
12 172 158 147 246 173 183 198 208 181 156 188 174 162 168 172 180 180 185 185 184 180 172 173 175 174 170 170 174 177 166 164 172 182 188 179 175 174 179 161 150 149 145 132 83 20 13 52 44
296 317 22 138 237 284 175 205 182 153 162 190 183 177 175 176 180 181 178 184 182 183 179 177 175 174 174 173 173 169 167 175 185 193 181 168 168 164 154 141 146 156 150 133 90 27 35 358 354
285 281 352 266 211 166 205 201 202 170 173 194 194 179 170 177 178 178 176 179 181 178 180 180 177 178 178 174 174 173 178 183 184 183 169 170 164 157 154 156 160 160 169 153 111 81 353 336 327
351 19 296 299 240 163 205 224 238 176 191 196 192 182 175 165 164 175 176 177 177 175 180 183 186 184 188 189 190 185 186 191 189 171 166 164 169 172 184 178 174 177 170 138 352 335 331 316 307
289 197 268 241 159 207 134 318 204 230 135 177 197 185 178 173 171 168 176 176 175 176 182 186 194 193 196 193 189 183 188 178 177 179 182 178 180 182 189 193 201 227 290 307 293 307 305 290 305
219 237 255 293 42 250 137 227 277 195 201 184 197 197 182 181 177 166 173 174 178 183 185 189 194 195 196 193 195 191 187 178 193 191 187 183 185 187 203 207 202 204 195 194 181 342 359 342 324
249 293 263 331 301 94 302 98 261 166 197 205 203 196 191 181 174 169 175 180 184 183 186 193 195 198 203 200 201 199 195 198 195 193 187 185 187 197 199 195 189 175 166 165 227 332 354 345 320
319 354 41 37 40 73 356 155 275 202 211 209 181 188 195 187 186 183 171 172 173 177 185 195 197 196 205 206 203 203 202 200 195 193 189 184 191 194 189 176 175 189 188 307 338 341 335 335 321
113 67 330 357 6 220 306 103 240 233 252 217 189 176 176 181 178 157 150 163 168 177 185 191 194 198 206 204 208 208 209 204 200 195 187 187 182 162 149 167 170 171 66 330 331 333 332 332 316
263 165 158 221 225 274 259 223 258 276 224 216 128 147 149 168 170 170 161 167 180 180 185 186 195 206 199 203 217 207 209 203 201 190 186 175 159 151 147 121 107 11 345 347 338 336 336 354 354
346 193 200 105 14 41 265 291 337 340 37 58 114 113 145 142 168 172 164 178 179 180 190 193 196 200 195 191 185 188 178 175 168 156 155 149 155 151 149 120 6 320 327 331 330 323 334 337 330
177 233 92 9 151 243 290 305 236 173 276 8 161 161 159 149 156 162 168 173 186 194 195 191 186 193 184 176 168 163 164 159 155 156 158 171 161 139 15 333 293 294 315 320 313 306 323 330 329
38 269 146 126 139 171 185 271 228 204 202 203 215 190 174 176 170 175 177 182 187 187 186 185 187 188 177 179 178 170 163 161 161 159 156 154 131 266 302 271 263 283 311 307 285 298 311 320 316
150 262 152 123 236 106 146 270 264 218 205 190 216 216 208 190 179 177 175 172 173 176 175 175 182 184 185 183 179 173 169 166 163 162 162 186 236 259 257 233 243 284 302 292 283 291 289 287 273